Location: Fountain Hills
(33.6120°N, 111.7170°W)
Time: 21:19:52
(UTC-07:00)

Hamsat - Visible Passes

Search period start: 19 October 2014 00:00
Search period end: 29 October 2014 00:00
Orbit: 592 x 629 km, 97.6° (Epoch: 19 October)

Date Brightness Start Highest point End Pass type
(mag) Time Alt. Az. Time Alt. Az. Time Alt. Az.
19 Oct ? 05:13:06 10° ENE 05:15:17 14° E 05:17:28 10° SE visible
20 Oct ? 05:26:34 10° NE 05:29:44 21° E 05:32:54 10° SE visible
21 Oct ? 05:40:25 10° NE 05:44:08 31° E 05:47:52 10° SSE visible
21 Oct ? 18:05:11 10° SSW 18:09:08 38° W 18:13:04 10° NNW visible
22 Oct ? 05:54:28 10° NNE 05:58:31 47° E 06:02:34 10° S visible
22 Oct ? 18:20:00 10° SSW 18:23:31 25° W 18:27:01 10° NW visible
23 Oct ? 06:08:39 10° NNE 06:12:51 73° E 06:17:03 10° S visible
23 Oct ? 18:35:08 10° SW 18:37:55 17° W 18:40:42 10° NW visible
24 Oct ? 18:51:01 10° WSW 18:52:20 11° W 18:53:39 10° WNW visible
25 Oct ? 05:04:21 10° E 05:05:17 11° E 05:06:13 10° ESE visible
26 Oct ? 05:17:02 10° NE 05:19:42 16° E 05:22:21 10° SE visible
27 Oct ? 05:30:38 10° NE 05:34:04 24° E 05:37:31 10° SSE visible
27 Oct ? 17:54:59 10° S 17:59:03 49° W 18:03:07 10° NNW visible
28 Oct ? 05:44:31 10° NNE 05:48:25 36° E 05:52:19 10° SSE visible
28 Oct ? 18:09:35 10° SSW 18:13:22 32° W 18:17:09 10° NNW visible
